Regional Weather Roundup
Issued by NWS

Home | Current Version | Previous Version | Graphics & Text | Print | Product List | Glossary On
Versions: 1 2 3 4 5 6 7 8 9 10 11 12 13 14 15 16 17 18 19 20 21 22 23 24 25 26 27 28 29 30 31 32 33 34 35 36 37 38 39 40 41 42 43 44 45 46 47 48 49 50
000
ASUS43 KOAX 130710
RWRNE

WEATHER ROUNDUP FOR NEBRASKA
NATIONAL WEATHER SERVICE OMAHA NE
100 AM CST WED DEC 13 2017

NOTES: SATELLITE DATA IS BEING USED TO AUGMENT CLOUD COVER ABOVE
       12000 FEET.
       "FAIR" INDICATES FEW OR NO CLOUDS BELOW 12,000 FEET WITH NO
       SIGNIFICANT WEATHER AND/OR OBSTRUCTIONS TO VISIBILITY.


NEZ001>004-019>022-054>056-130800-
NEBRASKA PANHANDLE

CITY           SKY/WX    TMP DP  RH WIND       PRES   REMARKS
SCOTTSBLUFF    CLOUDY    37  15  40 NW12      30.02R WCI  29
ALLIANCE       CLOUDY    35  18  49 W14       29.95S WCI  26
CHADRON        CLOUDY    50  12  21 W24G33    29.95R
GORDON         PTSUNNY   45  20  37 W12G20    29.90S
KIMBALL        CLOUDY    44   8  23 W16       30.04S
SIDNEY         CLOUDY    39  10  30 W12       29.99F WCI  32
$$

NEZ057>060-069>072-079>082-130800-
SOUTHWEST NEBRASKA

CITY           SKY/WX    TMP DP  RH WIND       PRES   REMARKS
NORTH PLATTE   CLOUDY    26  18  71 NW9       29.87F WCI  17
IMPERIAL       CLEAR     42  13  30 W13       29.93F
LEXINGTON      CLOUDY    31  20  63 NW9       29.83F WCI  23
MCCOOK         CLEAR     36  18  48 W12       29.88F WCI  28
OGALLALA       CLOUDY    39  15  36 W10       29.91F WCI  32
$$

NEZ005>010-023>029-035>040-094-130800-
NORTH CENTRAL NEBRASKA

CITY           SKY/WX    TMP DP  RH WIND       PRES   REMARKS
VALENTINE      CLOUDY    45  20  36 W14       29.79F
AINSWORTH      CLOUDY    48  21  34 W16G22    29.77F
BROKEN BOW     CLEAR     48  20  32 NW21      29.79F
O`NEILL        CLOUDY    45  23  42 W16       29.71F
ORD            CLOUDY    29  20  69 N6        29.75F WCI  23
THEDFORD       CLOUDY    43  21  41 W13       29.84F
$$

NEZ041-046>049-061>064-073>077-083>087-130800-
SOUTH CENTRAL NEBRASKA

CITY           SKY/WX    TMP DP  RH WIND       PRES   REMARKS
GRAND ISLAND   CLEAR     38  22  52 W13       29.76F WCI  30
AURORA         CLEAR     33  20  57 W10       29.74F WCI  25
HASTINGS       CLEAR     43  20  39 W16       29.77F
HEBRON         CLEAR     40  22  48 SW9       29.78F WCI  34
HOLDREGE       CLOUDY    41  22  46 W14       29.82F
KEARNEY        CLEAR     48  20  32 W17       29.79F
YORK           CLEAR     37  21  52 CALM      29.74F
$$

NEZ011>018-030>034-042>045-130800-
NORTHEAST NEBRASKA

CITY           SKY/WX    TMP DP  RH WIND       PRES   REMARKS
NORFOLK        CLOUDY    35  20  54 W8        29.67F WCI  29
ALBION         CLOUDY    39  22  51 NW7       29.72F WCI  34
BLAIR          CLEAR     37  25  63 SW13      29.69F WCI  29
COLUMBUS       CLEAR     37  21  52 SW10      29.72F WCI  30
FREMONT        CLOUDY    41  22  47 SW9       29.70F
TEKAMAH        CLOUDY    34  21  59 S8        29.67F WCI  27
WAYNE          CLOUDY    37  18  46 SW12      29.64F WCI  29
$$

NEZ050>053-065>068-078-088>093-130800-
SOUTHEAST NEBRASKA

CITY           SKY/WX    TMP DP  RH WIND       PRES   REMARKS
LINCOLN        CLEAR     32  23  69 S7        29.75F WCI  26
OMAHA EPPLEY   CLEAR     29  22  75 SE8       29.72F WCI  21
BEATRICE       CLEAR     36  24  64 S6        29.77F WCI  31
FALLS CITY     CLEAR     30  23  75 S6        29.78F WCI  24
NEBRASKA CITY  CLEAR     36  27  68 SW13      29.74F WCI  28
PLATTSMOUTH    CLEAR     39  26  60 S12       29.72F WCI  32
$$

NEZ044-045-051>053-067-130800-
OMAHA AREA

CITY           SKY/WX    TMP DP  RH WIND       PRES   REMARKS
OMAHA EPPLEY   CLEAR     29  22  75 SE8       29.72F WCI  21
BLAIR          CLEAR     37  25  63 SW13      29.69F WCI  29
FREMONT        CLOUDY    41  22  47 SW9       29.70F
MILLARD        CLEAR     36  26  67 CALM      29.72F
OFFUTT AFB     CLEAR     23  19  86 E3        29.71F
PLATTSMOUTH    CLEAR     39  26  60 S12       29.72F WCI  32
WAHOO          FAIR      41  23  48 SW12      29.70F
$$




USA.gov is the U.S. government's official web portal to all federal, state and local government web resources and services.